Location: Ku?niki
(51.4449°N, 17.8974°E)
Time: 07:43:51
(UTC+00:00)

Resurs 01 Rocket - Pass Details

Date: 18 September 2020
Orbit: 633 x 645 km, 98.0° (Epoch: 22 October)

Event Time Altitude Azimuth Distance (km) Brightness Sun altitude
Exits shadow 20:56:51 11° 264° (W) 1,993 4.4 -32.6°
Maximum altitude 20:57:39 11° 275° (W) 1,965 4.5 -32.7°
Drops below altitude 10° 20:59:02 10° 293° (WNW) 2,051 4.8 -32.8°
Sets 21:02:58 0° 328° (NNW) 2,967 6.1 -33.1°
